{"data":{"norad_id":43609,"intl_designator":"2018-068A","name":"HAIYANG-1C","alt_names":[],"object_type":"PAYLOAD","status":"ACTIVE","operator":null,"country":"PRC","launch_date":"2018-09-07","launch_site_code":"TAISC","launch_vehicle":null,"mission":null,"orbit_class":"UNKNOWN","rcs_meters":null,"size_class":null,"mass_kg":null,"dimensions":null,"purposes":[],"wikipedia_slug":null,"has_3d_model":false,"image_url":null,"decayed_at":null,"tle_current":{"epoch":"2026-09-20T04:45:52.945344Z","epoch_age_seconds":62367,"freshness":"FRESH","line1":"1 43609U 18068A   26263.19852946 -.00000036  00000+0  25007-5 0  9996","line2":"2 43609  98.5106 334.0880 0011266 165.9510 194.1990 14.34139821420704","mean_motion":14.34139821,"eccentricity":0.0011266,"inclination_deg":98.5106,"raan_deg":334.088,"arg_perigee_deg":165.951,"mean_anomaly_deg":194.199,"bstar":2.5007e-6,"rev_number":42070,"period_min":100.40861978129,"perigee_km":769.86435476064,"apogee_km":785.9883967589,"semimajor_km":7156.0633757598,"source":"CELESTRAK","updated_at":"2026-09-20T09:00:14.360365Z"}}}